User: anonymous   Login
Location: Unspecified
(0.0000°N, 0.0000°E)
Time: 21:55:46
(UTC+00:00)
Language:

ADEOS - Orbit

View from above orbital plane
View from above orbital plane
View from above satellite
View from above satellite

Ground track
Ground track

The orbit data is extracted from the following two-line orbital elements,

1 24277U 96046A   17082.82560287 +.00000007 +00000-0 +20278-4 0  9993
2 24277 098.7126 032.7146 0000932 153.8484 206.2745 14.29375157073805
Epoch (UTC): 23 March 2017 19:48:52
Eccentricity: 0.0000932
inclination: 98.7126°
perigee height: 793 km
apogee height: 794 km
right ascension of ascending node: 32.7146°
argument of perigee: 153.8484°
revolutions per day: 14.29375157
mean anomaly at epoch: 206.2745°
orbit number at epoch: 7380

The dashed part of the orbit path shows where the satellite is in the earth's shadow,  

DLR